[[{"header":{"parameterUnit":"m.s-1","parameterCategory":1,"la1":30.2991,"la2":30.254,"lo1":-89.0895,"lo2":-89.0444,"dx":0.0017,"dy":0.0017,"nx":28,"ny":28,"refTime":"2023-01-10T15:00:00:Z","depth":0,"parameterNumber":2,"parameterNumberName":"U-component_of_WINDS"},"data":[0,0,0,0,0,0,0,0,0,0,0,0,0,0,0,0,0,0,0,0,0,0,0,0,0,0,0,0,0,0,0,0,0,0,0,0,0,0,0,0,0,0,0,0,0,0,0,0,0,0,0,0,0,0,0,0,0,0,-0.4292,-0.4292,0,-0.4288,-0.4288,-0.4288,-0.4285,-0.4285,-0.4285,-0.4285,-0.428,-0.428,-0.428,0,0,0,0,0,0,0,0,0,0,0,0,0,-0.4296,-0.4296,-0.4292,-0.4292,-0.4292,-0.4288,-0.4288,-0.4288,-0.4285,-0.4285,-0.4285,-0.4285,-0.428,-0.428,-0.428,0,0,0,0,0,0,0,0,0,0,0,0,0,-0.4294,-0.4296,-0.4292,-0.429,-0.429,-0.4288,-0.4288,-0.4288,-0.4285,-0.4285,-0.4285,-0.4285,-0.428,-0.428,-0.428,-0.428,0,0,-0.4279,-0.4279,0,0,0,0,0,0,0,0,-0.4294,-0.4293,-0.429,-0.429,-0.429,-0.4287,-0.4288,-0.4285,-0.4285,-0.4287,-0.4285,-0.4285,-0.4282,-0.4282,-0.4281,-0.428,-0.428,-0.4279,-0.4279,-0.4279,-0.4279,0,0,0,0,0,0,0,-0.4294,-0.4294,-0.4291,-0.429,-0.429,-0.4289,-0.4289,-0.4287,-0.4285,-0.4286,-0.4286,-0.4286,-0.4282,-0.4281,-0.4281,-0.428,-0.4279,-0.4279,-0.4279,-0.4279,-0.4278,-0.4278,0,0,0,0,0,0,-0.4295,-0.4294,-0.4291,-0.4291,-0.4292,-0.4289,-0.4288,-0.4288,-0.4285,-0.4284,-0.4286,-0.4286,-0.4282,-0.4281,-0.4281,-0.4281,-0.4279,-0.4279,-0.4279,-0.4278,-0.4278,-0.4279,0,0,0,0,0,0,-0.4295,-0.4294,-0.4291,-0.4292,-0.4292,-0.4289,-0.4288,-0.4288,-0.4287,-0.4284,-0.4284,-0.4286,-0.4282,-0.4281,-0.428,-0.4281,-0.4279,-0.4279,-0.4278,-0.4278,-0.4278,-0.4282,0,0,0,0,0,0,-0.4295,-0.4294,-0.4295,-0.4292,-0.4292,-0.4291,-0.4288,-0.4288,-0.4287,-0.4287,-0.4284,-0.4284,-0.4282,-0.4281,-0.428,-0.4281,-0.4279,-0.4278,-0.4278,-0.4278,-0.4282,-0.4282,-0.4282,0,0,0,0,0,-0.4295,-0.4296,-0.4295,-0.4294,-0.4292,-0.4291,-0.429,-0.4288,-0.4287,-0.4287,-0.4285,-0.4284,-0.4281,-0.4281,-0.428,-0.4281,-0.4278,-0.4278,-0.4278,-0.4282,-0.4282,-0.4282,0,0,0,0,0,0,-0.4298,-0.4295,-0.4294,-0.4294,-0.4293,-0.429,-0.429,-0.4289,-0.4287,-0.4287,-0.4284,-0.4284,-0.4283,-0.4282,-0.4281,-0.4281,-0.4279,-0.4279,-0.4282,-0.4282,-0.4283,-0.4283,-0.4279,0,0,0,0,0,-0.4299,-0.4298,-0.4296,-0.4296,-0.4295,-0.4293,-0.4292,-0.4291,-0.4289,-0.4288,-0.4287,-0.4285,-0.4284,-0.4283,-0.4282,-0.4282,-0.4281,-0.4282,-0.4282,-0.4282,-0.4282,-0.4282,-0.4282,-0.4279,-0.4279,-0.4279,0,0,-0.43,-0.4298,-0.4298,-0.4296,-0.4295,-0.4294,-0.4292,-0.4292,-0.4291,-0.4288,-0.4287,-0.4286,-0.4284,-0.4284,-0.4283,-0.4282,-0.4283,-0.4282,-0.4283,-0.4283,-0.4282,-0.4283,-0.4283,-0.4279,-0.4279,-0.4279,0,0,-0.4302,-0.4301,-0.4301,-0.43,-0.4298,-0.4296,-0.4296,-0.4294,-0.4293,-0.4292,-0.429,-0.4289,-0.4287,-0.4286,-0.4285,-0.4287,-0.4285,-0.4287,-0.4288,-0.4288,-0.4288,-0.4289,-0.4289,-0.429,-0.4287,-0.4287,-0.4287,0,-0.4304,-0.4303,-0.4301,-0.43,-0.43,-0.4297,-0.4297,-0.4296,-0.4294,-0.4293,-0.4293,-0.429,-0.4289,-0.4288,-0.4288,-0.4288,-0.4287,-0.4287,-0.4289,-0.4289,-0.4289,-0.429,-0.429,-0.4287,-0.4287,-0.4287,-0.4287,0,-0.4305,-0.4305,-0.4305,-0.4303,-0.4302,-0.4302,-0.43,-0.4299,-0.4298,-0.4297,-0.4296,-0.4294,-0.4292,-0.4292,-0.429,-0.4291,-0.4291,-0.4289,-0.4288,-0.429,-0.429,-0.429,-0.4287,-0.4287,-0.4287,-0.4287,0,0,-0.4309,-0.4306,-0.4306,-0.4305,-0.4303,-0.4303,-0.4302,-0.4301,-0.4301,-0.4299,-0.4299,-0.4297,-0.4296,-0.4295,-0.4293,-0.4293,-0.4295,-0.4292,-0.4292,-0.4293,-0.4295,-0.4296,-0.4296,-0.4294,-0.4294,-0.4294,-0.4295,0,-0.4311,-0.431,-0.4308,-0.4308,-0.4307,-0.4305,-0.4305,-0.4304,-0.4302,-0.4301,-0.43,-0.4299,-0.4297,-0.4297,-0.4296,-0.4295,-0.4295,-0.4295,-0.4293,-0.4293,-0.4294,-0.4297,-0.4298,-0.4299,-0.4296,-0.4296,-0.4296,0,-0.4312,-0.4311,-0.4311,-0.4309,-0.4309,-0.4309,-0.4307,-0.4307,-0.4305,-0.4304,-0.4303,-0.4301,-0.4301,-0.4299,-0.4298,-0.4298,-0.4297,-0.4296,-0.4296,-0.4296,-0.4294,-0.4296,-0.43,-0.43,-0.4296,-0.4296,-0.4296,0,-0.4315,-0.4314,-0.4313,-0.4313,-0.4311,-0.431,-0.4309,-0.4308,-0.4307,-0.4306,-0.4305,-0.4304,-0.4303,-0.4302,-0.43,-0.4299,-0.4299,-0.4298,-0.4298,-0.4298,-0.4298,-0.4298,-0.4301,-0.4298,-0.4298,-0.4298,-0.4298,0,-0.4317,-0.4317,-0.4315,-0.4314,-0.4314,-0.4312,-0.4312,-0.4311,-0.431,-0.4309,-0.4307,-0.4306,-0.4304,-0.4303,-0.4301,-0.4301,-0.43,-0.4299,-0.4299,-0.43,-0.43,-0.4299,-0.4299,-0.4298,-0.4298,-0.4298,-0.4298,0,-0.432,-0.4318,-0.4318,-0.4316,-0.4315,-0.4315,-0.4314,-0.4313,-0.4312,-0.4311,-0.4311,-0.4309,-0.4308,-0.4306,-0.4304,-0.4303,-0.4302,-0.4302,-0.4303,-0.4303,-0.4303,-0.4303,-0.4306,-0.4306,-0.4303,-0.4303,-0.4303,0,-0.4321,-0.4321,-0.4319,-0.4319,-0.4318,-0.4317,-0.4317,-0.4315,-0.4314,-0.4312,-0.4312,-0.4311,-0.431,-0.4308,-0.4306,-0.4305,-0.4304,-0.4305,-0.4304,-0.4305,-0.4304,-0.4304,-0.4304,-0.4306,-0.4306,-0.4306,-0.4306,0,-0.4324,-0.4323,-0.4322,-0.4321,-0.4321,-0.432,-0.4319,-0.4318,-0.4316,-0.4316,-0.4315,-0.4314,-0.4312,-0.4311,-0.4309,-0.4308,-0.4306,-0.4306,-0.4306,-0.4307,-0.4308,-0.4307,-0.4304,-0.4306,-0.4306,-0.4306,-0.4306,-0.4306,-0.4326,-0.4326,-0.4325,-0.4324,-0.4323,-0.4322,-0.4322,-0.432,-0.4319,-0.4318,-0.4317,-0.4316,-0.4314,-0.4312,-0.4311,-0.431,-0.4309,-0.4309,-0.4309,-0.4309,-0.431,-0.4308,-0.431,-0.431,-0.431,-0.431,-0.431,0,-0.4329,-0.4328,-0.4327,-0.4326,-0.4325,-0.4324,-0.4323,-0.4322,-0.4321,-0.432,-0.4319,-0.4318,-0.4317,-0.4315,-0.4314,-0.4313,-0.4312,-0.4313,-0.4313,-0.4313,-0.431,-0.4311,-0.4314,-0.4314,-0.4314,-0.4314,-0.4314,-0.4314,-0.433,-0.4329,-0.4329,-0.4328,-0.4327,-0.4326,-0.4325,-0.4324,-0.4323,-0.4322,-0.4321,-0.432,-0.4319,-0.4317,-0.4316,-0.4316,-0.4315,-0.4316,-0.4315,-0.4313,-0.4313,-0.4312,-0.4312,-0.4316,-0.4316,-0.4317,-0.4317,-0.4317]},{"header":{"parameterUnit":"m.s-1","parameterCategory":1,"la1":30.2991,"la2":30.254,"lo1":-89.0895,"lo2":-89.0444,"dx":0.0017,"dy":0.0017,"nx":28,"ny":28,"refTime":"2023-01-10T15:00:00:Z","depth":0,"parameterNumber":3,"parameterNumberName":"V-component_of_WINDS"},"data":[0,0,0,0,0,0,0,0,0,0,0,0,0,0,0,0,0,0,0,0,0,0,0,0,0,0,0,0,0,0,0,0,0,0,0,0,0,0,0,0,0,0,0,0,0,0,0,0,0,0,0,0,0,0,0,0,0,0,2.5369,2.5368,0,2.5299,2.5298,2.5297,2.5248,2.5248,2.5248,2.5247,2.5173,2.5172,2.517,0,0,0,0,0,0,0,0,0,0,0,0,0,2.5459,2.5458,2.5369,2.5368,2.5367,2.5299,2.5298,2.5297,2.5248,2.5248,2.5248,2.5247,2.5174,2.5172,2.517,0,0,0,0,0,0,0,0,0,0,0,0,0,2.5408,2.5457,2.5369,2.5335,2.5331,2.5299,2.5298,2.5297,2.5249,2.5248,2.5247,2.5247,2.5175,2.5172,2.517,2.5166,0,0,2.5162,2.5161,0,0,0,0,0,0,0,0,2.5411,2.5404,2.5341,2.5337,2.5333,2.5282,2.5303,2.5253,2.5249,2.528,2.5247,2.5247,2.521,2.5204,2.5192,2.5163,2.5159,2.5162,2.5161,2.516,2.5159,0,0,0,0,0,0,0,2.5414,2.5407,2.5341,2.534,2.5335,2.5322,2.5314,2.5293,2.5249,2.5277,2.5273,2.5266,2.5208,2.5195,2.519,2.5158,2.5162,2.516,2.5159,2.5158,2.5123,2.5124,0,0,0,0,0,0,2.5423,2.541,2.5343,2.5339,2.5371,2.5321,2.5312,2.5299,2.5249,2.5241,2.5266,2.5264,2.5199,2.5193,2.5188,2.5181,2.516,2.5157,2.5156,2.5123,2.5123,2.5124,0,0,0,0,0,0,2.5426,2.5418,2.5346,2.5374,2.5364,2.532,2.5305,2.5298,2.5285,2.5241,2.5232,2.5262,2.5199,2.5191,2.5172,2.5178,2.5156,2.5154,2.5122,2.5123,2.5123,2.5167,0,0,0,0,0,0,2.5428,2.5419,2.5417,2.5374,2.5362,2.5332,2.5306,2.5297,2.5281,2.5277,2.5234,2.5227,2.5198,2.5176,2.517,2.5174,2.5152,2.5121,2.5122,2.5123,2.5165,2.5169,2.5173,0,0,0,0,0,2.5432,2.5431,2.5417,2.541,2.5359,2.5333,2.5326,2.5293,2.5282,2.528,2.5252,2.5228,2.5178,2.5175,2.5167,2.517,2.5121,2.5122,2.5123,2.5163,2.5168,2.5173,0,0,0,0,0,0,2.5475,2.5425,2.5409,2.5395,2.5369,2.5325,2.5321,2.53,2.5276,2.5273,2.5233,2.5223,2.5209,2.5188,2.5185,2.5165,2.5147,2.5146,2.5179,2.5184,2.5188,2.5193,2.515,0,0,0,0,0,2.5483,2.5467,2.5423,2.5415,2.5403,2.5364,2.5351,2.5329,2.53,2.5288,2.5258,2.5231,2.5209,2.5195,2.5172,2.5161,2.5152,2.516,2.5164,2.5168,2.5168,2.5162,2.5165,2.5128,2.5128,2.5128,0,0,2.55,2.547,2.5462,2.5423,2.54,2.5383,2.5355,2.5338,2.5326,2.5285,2.5266,2.5244,2.521,2.5196,2.5188,2.5177,2.5176,2.5169,2.5172,2.5171,2.5163,2.5167,2.517,2.5129,2.5128,2.5128,0,0,2.5521,2.5497,2.5488,2.5466,2.5432,2.5407,2.5405,2.5364,2.5348,2.5328,2.5298,2.5282,2.5245,2.5223,2.5206,2.5221,2.5199,2.5215,2.5236,2.523,2.5233,2.5235,2.5242,2.5244,2.5215,2.5215,2.5215,0,2.5545,2.5519,2.5486,2.5471,2.5455,2.5419,2.541,2.539,2.535,2.534,2.5329,2.5283,2.5257,2.5238,2.5242,2.523,2.5226,2.5219,2.5235,2.5238,2.5239,2.5245,2.5247,2.5217,2.5217,2.5217,2.5217,0,2.5551,2.5534,2.5531,2.5495,2.5479,2.5467,2.5431,2.5419,2.5398,2.5374,2.5355,2.5323,2.5294,2.5288,2.5266,2.5266,2.526,2.5243,2.5224,2.5246,2.525,2.5252,2.5221,2.522,2.5219,2.5219,0,0,2.5597,2.5544,2.5544,2.5527,2.5488,2.5474,2.546,2.5433,2.5424,2.5398,2.5386,2.5356,2.534,2.5322,2.5298,2.5293,2.5308,2.5276,2.5275,2.5284,2.5306,2.532,2.5323,2.5293,2.5293,2.5294,2.5309,0,2.5613,2.5589,2.5559,2.5544,2.5528,2.5494,2.5483,2.5457,2.5435,2.5418,2.5392,2.5372,2.5352,2.5341,2.5335,2.5308,2.5312,2.5306,2.5282,2.5281,2.5292,2.5325,2.5339,2.5356,2.5311,2.5311,2.5311,0,2.5628,2.5606,2.559,2.5554,2.5546,2.5536,2.5509,2.5493,2.5464,2.5448,2.5429,2.5403,2.5388,2.5371,2.5349,2.5346,2.5334,2.5319,2.5319,2.5316,2.5298,2.5324,2.536,2.5363,2.5313,2.5313,2.5313,0,2.5665,2.563,2.5617,2.5604,2.556,2.5555,2.5536,2.5506,2.5492,2.5469,2.5459,2.5434,2.542,2.5401,2.537,2.536,2.5352,2.5332,2.5338,2.5339,2.5338,2.5339,2.5374,2.533,2.533,2.533,2.533,0,2.5686,2.5678,2.5633,2.5625,2.5615,2.558,2.5571,2.555,2.5524,2.5511,2.5479,2.5468,2.5427,2.541,2.5385,2.5372,2.5366,2.5352,2.5346,2.5356,2.5357,2.5348,2.5346,2.533,2.533,2.533,2.533,0,2.5725,2.5694,2.5678,2.5639,2.5629,2.5623,2.559,2.558,2.5556,2.554,2.5535,2.5497,2.5476,2.5443,2.5412,2.5395,2.5386,2.5375,2.5397,2.5393,2.5402,2.5402,2.5432,2.5435,2.5389,2.5389,2.539,0,2.5741,2.5734,2.5695,2.5685,2.5668,2.5651,2.5637,2.5603,2.559,2.5557,2.5552,2.5529,2.5508,2.5477,2.5446,2.5423,2.5411,2.5424,2.5407,2.5418,2.5412,2.5413,2.5413,2.5427,2.5428,2.5429,2.5429,0,2.5773,2.5758,2.574,2.5716,2.5701,2.5681,2.5658,2.5652,2.5613,2.5599,2.5578,2.5563,2.5532,2.551,2.5482,2.5463,2.544,2.5435,2.5435,2.5445,2.5458,2.5452,2.5408,2.5434,2.5434,2.5433,2.5433,2.5433,2.5801,2.5794,2.5766,2.5747,2.5727,2.5708,2.5697,2.5673,2.5655,2.5628,2.5609,2.5589,2.5561,2.5522,2.5504,2.5488,2.5478,2.5478,2.5478,2.5479,2.5483,2.5461,2.5483,2.5482,2.5482,2.5482,2.5482,0,2.5832,2.5813,2.5795,2.5766,2.5752,2.5732,2.5707,2.5696,2.5679,2.5655,2.5637,2.5613,2.5592,2.556,2.5536,2.553,2.5519,2.5525,2.5525,2.5521,2.5493,2.5496,2.5534,2.5534,2.5534,2.5534,2.5534,2.5534,2.5846,2.5834,2.5817,2.5794,2.5775,2.5756,2.5744,2.5726,2.5707,2.5682,2.5665,2.5645,2.5618,2.5592,2.5572,2.5563,2.5556,2.5566,2.5554,2.5528,2.5523,2.5519,2.5521,2.5564,2.5564,2.5583,2.5583,2.5584]}]]